Flag for Chile Weather past 2 weeks in Viña del Mar, Chile

Now
66 °F

Partly sunny.


Feels Like: 66 °F
Forecast: N/A
Wind: 5 mph from South

Location: Pudahuel

Current Time: Apr 19, 2015 at 6:40:07 PM

Latest Report: Apr 19, 2015 at 6:00 PM


Visibility: N/A

Pressure: 29.98 "Hg

Humidity: 30%

Dew point: 34 °F

Location of Viña del MarLocation

Historic Weather in Viña del Mar — Graph

°F

Viña del Mar temperature yesterday

Maximum temperature yesterday: 81 °F (at 3:00 PM)
Minimum temperature yesterday: 46 °F (at 8:00 AM)
Average temperature yesterday: 62 °F

Past Weeks' High & Low Weather Summary

 TemperatureHumidityPressure
High90 °F (Apr 10, 5:00 PM)100% (Apr 5, 3:00 AM)30.18 "Hg (Apr 5, 3:00 AM)
Low39 °F (Apr 5, 3:00 AM)14% (Apr 10, 5:00 PM)29.83 "Hg (Apr 6, 3:00 PM)
Average63 °F55%29.97 "Hg
* Reported Apr 4 5:00 PM — Apr 19 5:00 PM, Viña del Mar, Weather by CustomWeather, © 2015

Note: Actual official high and low records may vary slightly from our data, if they occured in-between our weather recording intervals... More about our weather records

Advertising

Viña del Mar weather history for previous 24 hours

 ConditionsComfort  
Time TempWeatherWind HumidityBarometerVisibility
5:00 PM
Sun, Apr 19
66 °FPartly sunny.2 mph35%29.98 "HgN/A
4:00 PM64 °FPartly sunny.3 mph37%29.98 "HgN/A
3:00 PM64 °FPartly sunny.2 mph40%30.01 "HgN/A
2:00 PM61 °FRefreshingly cool.N/A48%29.98 "HgN/A
1:00 PM59 °FPartly sunny.3 mph55%30.01 "HgN/A
12:00 PM55 °FPartly sunny.5 mph63%30.04 "HgN/A
11:00 AM54 °FPartly sunny.3 mph67%30.04 "HgN/A
10:00 AM52 °FPartly sunny.1 mph72%30.04 "HgN/A
9:00 AM48 °FPartly sunny.2 mph76%30.01 "Hg2 mi
8:00 AM48 °FBroken clouds.2 mph82%30.01 "Hg4 mi
7:00 AM46 °FPassing clouds.3 mph82%30.01 "Hg4 mi
6:00 AM50 °FClear.1 mph76%29.98 "Hg10 mi
5:00 AM50 °FPassing clouds.5 mph76%29.98 "HgN/A
4:00 AM50 °FClear.5 mph71%30.01 "Hg10 mi
3:00 AM50 °FClear.6 mph71%29.98 "Hg10 mi
2:00 AM52 °FClear.6 mph67%29.95 "Hg10 mi
1:00 AM54 °FClear.10 mph63%29.95 "Hg10 mi
12:00 AM55 °FClear.9 mph59%29.95 "Hg10 mi
11:00 PM
Sat, Apr 18
59 °FClear.8 mph51%29.92 "Hg10 mi
10:00 PM59 °FClear.10 mph51%29.92 "Hg10 mi
9:00 PM64 °FClear.8 mph40%29.89 "Hg10 mi
8:00 PM68 °FClear.10 mph33%29.89 "Hg10 mi
7:00 PM73 °FClear.12 mph29%29.86 "Hg10 mi
6:00 PM79 °FSunny.13 mph24%29.86 "Hg10 mi
Weather by CustomWeather, © 2015

See weather overviewHow to use our weather pages